LAMPTON Weather Reports


time (UTC)temp
C
wind
direction
speed
KPH
gust
KPH
rain 1hr
cm
rain 24hr
cm
rain mn
cm
humidity
%
barometer
mb
20260505023035 15 248 4.8 17.7 0.00 0.00 0.00 58 1009.3
20260505021532 15 209 3.2 14.5 0.00 0.00 0.00 57 1009.3
20260505020038 15 276 4.8 17.7 0.00 0.00 0.00 56 1009.3
20260505014536 16 228 4.8 17.7 0.00 0.00 0.00 54 1009.2
20260505013037 16 136 11.3 22.5 0.00 0.00 0.00 53 1009.0
20260505011536 16 215 8.0 19.3 0.00 0.00 0.00 52 1008.6
20260505010035 17 271 6.4 22.5 0.00 0.00 0.00 51 1008.4
20260505004544 17 294 8.0 22.5 0.00 0.00 0.00 49 1008.0
20260505003033 17 209 0.0 8.0 0.00 0.00 0.00 46 1007.6
20260505001534 17 209 1.6 8.0 0.00 0.00 0.00 45 1007.1
20260505000051 18 246 1.6 14.5 0.00 0.00 0.00 43 1006.9
20260504234538 18 237 1.6 9.7 0.00 0.00 0.00 38 1006.7
20260504233032 19 193 6.4 19.3 0.00 0.00 0.00 36 1006.5
20260504231535 20 297 1.6 16.1 0.00 0.00 0.00 34 1006.2
20260504230048 20 227 6.4 20.9 0.00 0.00 0.00 37 1006.2
20260504224531 21 297 3.2 17.7 0.00 0.00 0.00 36 1005.9
20260504223034 21 177 8.0 22.5 0.00 0.00 0.00 35 1005.9
20260504221549 21 224 6.4 22.5 0.00 0.00 0.00 35 1005.9
20260504220035 21 218 3.2 17.7 0.00 0.00 0.00 32 1005.9
20260504214537 21 276 6.4 30.6 0.00 0.00 0.00 34 1005.9
20260504213043 21 101 11.3 22.5 0.00 0.00 0.00 34 1005.7
20260504211543 21 293 8.0 24.1 0.00 0.00 0.00 34 1006.0
20260504210032 21 317 4.8 30.6 0.00 0.00 0.00 31 1006.0
20260504204538 21 263 6.4 24.1 0.00 0.00 0.00 35 1005.7
20260504203033 21 300 3.2 30.6 0.00 0.00 0.00 34 1005.8
20260504201535 21 270 8.0 27.4 0.00 0.00 0.00 34 1005.9
20260504200034 20 255 6.4 29.0 0.00 0.00 0.00 34 1005.8
20260504194532 21 243 11.3 30.6 0.00 0.00 0.00 34 1006.1
20260504193032 20 304 8.0 24.1 0.00 0.00 0.00 34 1006.1
20260504191540 21 196 11.3 20.9 0.00 0.00 0.00 33 1006.0
20260504190036 20 285 8.0 38.6 0.00 0.00 0.00 30 1006.1
20260504184535 20 238 9.7 25.7 0.00 0.00 0.00 34 1006.2
20260504183034 21 198 14.5 32.2 0.00 0.00 0.00 28 1006.4
20260504181535 21 323 3.2 29.0 0.00 0.00 0.00 30 1006.5
20260504180032 20 278 12.9 45.1 0.00 0.00 0.00 34 1006.5
20260504174535 20 326 9.7 32.2 0.00 0.00 0.00 35 1006.7
20260504173036 20 195 8.0 29.0 0.00 0.00 0.00 35 1006.9
20260504171535 20 231 11.3 33.8 0.00 0.00 0.00 36 1006.7
20260504081534 5 0 0.0 0.0 0.00 0.00 0.00 71 1009.8
20260504044532 3 267 0.0 3.2 0.00 0.00 0.00 72 1009.5
20260504043031 3 0 0.0 3.2 0.00 0.00 0.00 73 1009.4
20260504041534 3 0 0.0 1.6 0.00 0.00 0.00 75 1009.4
20260504040041 3 289 0.0 1.6 0.00 0.00 0.00 74 1009.4
20260504034536 3 0 0.0 0.0 0.00 0.00 0.00 75 1009.3
20260504033037 3 0 0.0 0.0 0.00 0.00 0.00 75 1009.3
20260504031537 3 0 0.0 0.0 0.00 0.00 0.00 75 1009.3
20260504030034 3 0 0.0 0.0 0.00 0.00 0.00 72 1009.3
20260504024533 3 0 0.0 0.0 0.00 0.00 0.00 74 1009.3